This demonstration page uses our WeatherBlox Daily Observations layout. Learn more.

Left ArrowRight Arrow

34.16533, -84.80231

Hourly Observations for March 30, 2021

Temp ( °F °C ) Dew Point ( °F °C ) Humidity (%) Winds ( mph kmh ) Pressure ( in mb ) Visibility ( mi km ) Precip ( " mm )
12:53 am 00:53 Clear 50 10 38 3.3 63 63 SE 5 7 30.17 1022 10 16 0.00 0.00
3:53 am 03:53 Clear 45 7.2 38 3.3 77 77 Calm 30.16 1021 10 16 0.00 0.00
4:53 am 04:53 Clear 45 7.2 38 3.3 77 77 Calm 30.17 1022 10 16 0.00 0.00
5:53 am 05:53 Clear 45 7.2 39 3.9 80 80 Calm 30.18 1022 10 16 0.00 0.00
6:53 am 06:53 Clear 45 7.2 39 3.9 80 80 NNE 3 6 30.21 1023 10 16 0.00 0.00
7:53 am 07:53 Sunny 47 8.3 42 5.6 83 83 E 3 6 30.23 1024 10 16 0.00 0.00
8:53 am 08:53 Partly Cloudy 53 11.7 46 7.8 77 77 ESE 8 13 30.23 1024 10 16 0.00 0.00
9:01 am 09:01 Mostly Cloudy 54 12.2 46 7.8 75 75 ESE 8 13 30.25 1024 10 16 0.00 0.00
9:53 am 09:53 Mostly Cloudy 59 15 49 9.4 69 69 SE 12 19 30.24 1024 10 16 0.00 0.00
10:01 am 10:01 Partly Cloudy 60 15.6 50 10 70 70 SSE 9 15 30.24 1024 10 16 0.00 0.00
10:24 am 10:24 Mostly Cloudy 61 16.1 50 10 67 67 SE 12 19 30.25 1024 10 16 0.00 0.00
10:38 am 10:38 Cloudy 61 16.1 51 10.6 70 70 SSE 9 15 30.26 1025 10 16 0.00 0.00
10:53 am 10:53 Cloudy 61 16.1 51 10.6 70 70 ESE 10 17 30.24 1024 10 16 0.00 0.00
11:30 am 11:30 Partly Cloudy 65 18.3 52 11.1 63 63 SSE 10 17 30.25 1024 10 16 0.00 0.00
11:53 am 11:53 Mostly Cloudy 67 19.4 52 11.1 59 59 ESE 15 24 30.22 1024 10 16 0.00 0.00
12:53 pm 12:53 Cloudy 70 21.1 54 12.2 57 57 SE 9 15 30.21 1023 10 16 0.00 0.00
1:11 pm 13:11 Cloudy 70 21.1 54 12.2 57 57 SE 9 15 30.21 1023 10 16 0.00 0.00
1:53 pm 13:53 Cloudy 72 22.2 54 12.2 53 53 SSE 10 17 30.19 1022 10 16 0.00 0.00
2:53 pm 14:53 Cloudy 74 23.3 56 13.3 54 54 E 8 13 30.16 1022 10 16 0.00 0.00
3:53 pm 15:53 Mostly Sunny 75 23.9 54 12.2 48 48 undefined N/A 30.14 1021 10 16 0.00 0.00
4:53 pm 16:53 Mostly Cloudy 75 23.9 54 12.2 48 48 SSE 7 11 30.12 1020 10 16 0.00 0.00
5:53 pm 17:53 Partly Cloudy 76 24.4 53 11.7 45 45 SE 8 13 30.10 1019 10 16 0.00 0.00
6:53 pm 18:53 Mostly Sunny 75 23.9 54 12.2 48 48 S 8 13 30.11 1020 10 16 0.00 0.00
7:53 pm 19:53 Mostly Cloudy 73 22.8 54 12.2 51 51 SE 6 9 30.10 1019 10 16 0.00 0.00
8:53 pm 20:53 Mostly Cloudy 72 22.2 56 13.3 57 57 SE 12 19 30.10 1019 10 16 0.00 0.00
9:53 pm 21:53 Mostly Cloudy 69 20.6 56 13.3 63 63 ESE 7 11 30.14 1021 10 16 0.00 0.00
10:53 pm 22:53 Cloudy 69 20.6 56 13.3 63 63 SE 8 13 30.14 1021 10 16 0.00 0.00
11:53 pm 23:53 Mostly Cloudy 68 20 56 13.3 65 65 ESE 7 11 30.13 1020 10 16 0.00 0.00

Powered by AerisWeather